TimeEDT,TemperatureF,Dew PointF,Humidity,Sea Level PressureIn,VisibilityMPH,Wind Direction,Wind SpeedMPH,Gust SpeedMPH,PrecipitationIn,Events,Conditions,WindDirDegrees,DateUTC
12:15 AM,59.0,55.4,88,30.30,10.0,ENE,6.9,-,N/A,,Overcast,70,2013-10-14 04:15:00
12:35 AM,59.0,55.4,88,30.29,10.0,ENE,4.6,-,N/A,,Overcast,60,2013-10-14 04:35:00
12:55 AM,59.0,55.4,88,30.29,10.0,East,5.8,-,N/A,,Overcast,80,2013-10-14 04:55:00
1:15 AM,59.0,55.4,88,30.29,10.0,ENE,4.6,-,N/A,,Overcast,60,2013-10-14 05:15:00
1:35 AM,59.0,55.4,88,30.30,10.0,ENE,4.6,-,N/A,,Overcast,60,2013-10-14 05:35:00
1:55 AM,59.0,55.4,88,30.30,10.0,ENE,4.6,-,N/A,,Overcast,60,2013-10-14 05:55:00
2:15 AM,57.2,55.4,94,30.29,10.0,East,5.8,-,N/A,,Overcast,80,2013-10-14 06:15:00
2:35 AM,57.2,55.4,94,30.30,10.0,NE,4.6,-,N/A,,Overcast,40,2013-10-14 06:35:00
2:55 AM,57.2,55.4,94,30.30,10.0,NE,3.5,-,N/A,,Overcast,50,2013-10-14 06:55:00
3:15 AM,57.2,55.4,94,30.29,10.0,NE,3.5,-,N/A,,Overcast,50,2013-10-14 07:15:00
3:35 AM,57.2,53.6,88,30.30,10.0,NNE,3.5,-,N/A,,Overcast,30,2013-10-14 07:35:00
3:55 AM,57.2,53.6,88,30.30,10.0,NE,3.5,-,N/A,,Overcast,40,2013-10-14 07:55:00
4:15 AM,57.2,53.6,88,30.29,10.0,ENE,4.6,-,N/A,,Overcast,60,2013-10-14 08:15:00
4:35 AM,57.2,53.6,88,30.29,8.0,ENE,4.6,-,N/A,,Overcast,70,2013-10-14 08:35:00
4:55 AM,57.2,53.6,88,30.30,7.0,NE,4.6,-,N/A,,Overcast,40,2013-10-14 08:55:00
5:15 AM,57.2,53.6,88,30.30,10.0,NE,3.5,-,N/A,,Overcast,50,2013-10-14 09:15:00
5:35 AM,57.2,55.4,94,30.30,10.0,Calm,Calm,-,N/A,,Overcast,0,2013-10-14 09:35:00
5:55 AM,57.2,53.6,88,30.30,10.0,North,3.5,-,N/A,,Overcast,10,2013-10-14 09:55:00
6:15 AM,57.2,53.6,88,30.30,9.0,North,3.5,-,N/A,,Overcast,360,2013-10-14 10:15:00
6:35 AM,57.2,53.6,88,30.31,3.0,North,3.5,-,N/A,,Overcast,350,2013-10-14 10:35:00
6:55 AM,57.2,53.6,88,30.32,3.0,North,4.6,-,N/A,,Overcast,350,2013-10-14 10:55:00
7:15 AM,55.4,53.6,94,30.31,5.0,North,3.5,-,N/A,,Overcast,360,2013-10-14 11:15:00
7:35 AM,55.4,51.8,88,30.32,5.0,NNW,6.9,-,0.02,,Overcast,340,2013-10-14 11:35:00
7:55 AM,55.4,51.8,88,30.32,9.0,North,6.9,-,0.02,,Overcast,10,2013-10-14 11:55:00
8:15 AM,55.4,51.8,88,30.33,10.0,North,5.8,-,0.01,,Overcast,10,2013-10-14 12:15:00
8:35 AM,55.4,51.8,88,30.33,6.0,North,5.8,-,0.01,,Overcast,350,2013-10-14 12:35:00
8:55 AM,55.4,51.8,88,30.34,7.0,North,5.8,-,0.01,,Overcast,360,2013-10-14 12:55:00
9:15 AM,55.4,51.8,88,30.35,6.0,North,4.6,-,N/A,,Overcast,350,2013-10-14 13:15:00
9:35 AM,55.4,51.8,88,30.35,9.0,North,4.6,-,N/A,,Overcast,10,2013-10-14 13:35:00
9:55 AM,55.4,51.8,88,30.35,6.0,North,4.6,-,N/A,,Overcast,360,2013-10-14 13:55:00
10:15 AM,55.4,51.8,88,30.35,10.0,North,5.8,-,N/A,,Overcast,10,2013-10-14 14:15:00
10:35 AM,55.4,51.8,88,30.35,10.0,North,5.8,-,N/A,,Overcast,360,2013-10-14 14:35:00
10:55 AM,55.4,51.8,88,30.35,4.0,North,5.8,-,N/A,,Overcast,360,2013-10-14 14:55:00
11:15 AM,55.4,51.8,88,30.34,6.0,NNE,6.9,-,N/A,,Overcast,20,2013-10-14 15:15:00
11:35 AM,57.2,53.6,88,30.33,7.0,NE,9.2,-,N/A,,Overcast,40,2013-10-14 15:35:00
11:55 AM,57.2,53.6,88,30.34,10.0,NNE,8.1,-,N/A,,Overcast,20,2013-10-14 15:55:00
12:15 PM,57.2,51.8,82,30.34,10.0,NE,8.1,-,N/A,,Overcast,40,2013-10-14 16:15:00
12:35 PM,57.2,51.8,82,30.33,10.0,NNE,6.9,-,N/A,,Overcast,30,2013-10-14 16:35:00
12:55 PM,59.0,51.8,77,30.32,10.0,NE,8.1,-,N/A,,Overcast,50,2013-10-14 16:55:00
1:15 PM,59.0,51.8,77,30.32,10.0,NE,5.8,-,N/A,,Overcast,40,2013-10-14 17:15:00
1:35 PM,59.0,51.8,77,30.31,10.0,NE,6.9,-,N/A,,Overcast,40,2013-10-14 17:35:00
1:55 PM,60.8,51.8,72,30.31,10.0,ENE,5.8,-,N/A,,Overcast,70,2013-10-14 17:55:00
2:15 PM,60.8,51.8,72,30.30,10.0,NE,6.9,-,N/A,,Overcast,40,2013-10-14 18:15:00
2:35 PM,60.8,51.8,72,30.29,10.0,ENE,3.5,-,N/A,,Overcast,60,2013-10-14 18:35:00
2:55 PM,60.8,51.8,72,30.29,10.0,NNE,4.6,-,N/A,,Overcast,30,2013-10-14 18:55:00
3:15 PM,62.6,51.8,68,30.28,10.0,East,4.6,-,N/A,,Mostly Cloudy,80,2013-10-14 19:15:00
3:35 PM,62.6,51.8,68,30.28,10.0,NE,3.5,-,N/A,,Mostly Cloudy,50,2013-10-14 19:35:00
3:55 PM,62.6,53.6,72,30.27,10.0,ENE,4.6,-,N/A,,Overcast,70,2013-10-14 19:55:00
4:15 PM,62.6,53.6,72,30.28,10.0,ENE,3.5,-,N/A,,Overcast,60,2013-10-14 20:15:00
4:35 PM,62.6,53.6,72,30.27,10.0,East,4.6,-,N/A,,Overcast,90,2013-10-14 20:35:00
4:55 PM,62.6,53.6,72,30.27,10.0,East,6.9,-,N/A,,Scattered Clouds,100,2013-10-14 20:55:00
5:15 PM,62.6,53.6,72,30.27,10.0,ESE,4.6,-,N/A,,Clear,110,2013-10-14 21:15:00
5:35 PM,62.6,53.6,72,30.26,10.0,East,5.8,-,N/A,,Clear,90,2013-10-14 21:35:00
5:55 PM,62.6,53.6,72,30.27,10.0,East,5.8,-,N/A,,Clear,80,2013-10-14 21:55:00
6:15 PM,60.8,53.6,77,30.28,10.0,ESE,6.9,-,N/A,,Clear,120,2013-10-14 22:15:00
6:35 PM,59.0,53.6,82,30.28,10.0,ESE,4.6,-,N/A,,Clear,120,2013-10-14 22:35:00
6:55 PM,57.2,53.6,88,30.28,10.0,ESE,3.5,-,N/A,,Clear,110,2013-10-14 22:55:00
7:15 PM,57.2,53.6,88,30.28,10.0,ESE,4.6,-,N/A,,Mostly Cloudy,110,2013-10-14 23:15:00
7:35 PM,57.2,53.6,88,30.27,10.0,ESE,3.5,-,N/A,,Overcast,110,2013-10-14 23:35:00
7:55 PM,57.2,53.6,88,30.28,10.0,Calm,Calm,-,N/A,,Overcast,0,2013-10-14 23:55:00
8:15 PM,57.2,53.6,88,30.28,10.0,Calm,Calm,-,N/A,,Overcast,0,2013-10-15 00:15:00
8:35 PM,57.2,53.6,88,30.28,10.0,East,3.5,-,N/A,,Overcast,100,2013-10-15 00:35:00
8:55 PM,57.2,53.6,88,30.29,8.0,Calm,Calm,-,N/A,,Overcast,0,2013-10-15 00:55:00
9:15 PM,55.4,53.6,94,30.28,10.0,Calm,Calm,-,N/A,,Overcast,0,2013-10-15 01:15:00
9:35 PM,55.4,53.6,94,30.29,10.0,NE,3.5,-,N/A,,Overcast,50,2013-10-15 01:35:00
9:55 PM,55.4,53.6,94,30.29,10.0,Calm,Calm,-,N/A,,Overcast,0,2013-10-15 01:55:00
10:15 PM,55.4,53.6,94,30.28,10.0,Calm,Calm,-,N/A,,Overcast,0,2013-10-15 02:15:00
10:35 PM,57.2,53.6,88,30.29,10.0,NNE,4.6,-,N/A,,Overcast,20,2013-10-15 02:35:00
10:55 PM,55.4,53.6,94,30.28,10.0,NE,3.5,-,N/A,,Overcast,40,2013-10-15 02:55:00
11:15 PM,53.6,51.8,94,30.28,10.0,NNE,4.6,-,N/A,,Scattered Clouds,30,2013-10-15 03:15:00
11:35 PM,53.6,51.8,94,30.27,10.0,NE,4.6,-,N/A,,Clear,50,2013-10-15 03:35:00
11:55 PM,51.8,50.0,94,30.27,9.0,NE,3.5,-,N/A,,Clear,50,2013-10-15 03:55:00